Theta_e
300 302 302 303 304 305 306 311 312 312 306 304 303 302 302 301 301 297 295 296 294 288 288 290 290 288 287 287 283 284 282 283 285 281 280 280 279 281 279 280 279 279 277 277 279 276 273 284 283 278 282 284 283 283
299 299 301 302 302 302 305 306 307 305 304 302 301 301 302 301 300 298 293 295 295 291 286 289 291 291 290 290 286 284 282 283 286 283 283 282 280 280 279 276 281 277 281 279 280 280 284 285 283 285 285 283 283 283
298 298 299 301 301 301 301 304 304 304 303 302 302 302 301 300 299 297 294 294 292 288 286 285 285 288 291 291 292 285 285 286 286 286 285 283 280 282 277 277 279 281 282 279 278 280 282 283 285 285 285 284 285 285
296 297 298 298 300 299 300 301 304 304 302 302 302 301 299 299 298 296 294 293 291 287 281 281 289 287 289 291 290 289 288 288 287 287 283 281 279 282 278 278 277 279 280 278 278 280 281 282 283 284 284 285 285 286
295 296 296 297 298 299 301 300 300 301 303 303 301 300 300 300 298 295 294 293 293 286 282 281 286 286 288 288 289 289 289 286 285 282 281 279 282 280 279 279 277 280 278 276 274 280 279 280 284 285 284 284 285 285
296 295 295 296 297 297 299 301 301 300 301 302 301 301 300 300 298 292 286 293 295 293 285 279 285 283 285 287 287 286 286 285 285 283 281 282 282 281 276 274 279 281 282 283 280 283 283 284 284 285 284 284 285 285
295 295 295 295 296 297 297 298 300 301 301 302 301 301 300 299 292 287 286 292 295 292 284 278 278 282 283 284 284 284 285 285 285 283 281 281 281 282 278 274 280 281 282 282 283 282 280 283 282 285 284 285 286 286
295 295 295 295 295 296 296 297 298 300 301 302 300 301 300 298 295 289 292 295 292 286 284 276 276 278 282 280 279 284 282 283 282 281 280 280 280 280 275 279 281 282 282 282 283 283 282 284 284 283 284 284 283 283
295 295 295 295 295 294 295 296 297 299 300 301 300 298 293 289 286 288 295 293 292 287 278 276 274 273 281 279 281 280 282 277 279 278 278 279 276 273 278 280 281 282 281 281 282 282 282 281 282 282 282 282 280 281
295 295 295 295 295 295 294 296 296 298 299 298 291 287 283 287 294 291 286 284 283 283 280 276 278 275 279 278 277 277 278 276 273 276 279 276 275 280 281 282 283 283 282 281 279 279 280 279 280 281 281 282 281 281
295 295 295 295 295 295 294 295 296 297 296 289 284 282 289 292 286 281 276 275 276 274 279 279 278 276 280 276 276 277 274 272 271 273 274 273 273 278 281 281 282 282 281 281 281 281 281 280 280 280 280 281 281 281
295 295 295 295 295 295 295 295 295 289 285 288 288 289 287 282 277 273 270 272 272 271 276 276 277 279 279 280 277 273 271 270 269 273 272 269 275 278 279 279 280 281 281 280 281 280 280 280 281 280 280 280 281 281
295 295 295 295 295 295 295 294 295 292 291 287 283 278 278 274 269 268 265 268 270 274 276 277 276 279 279 278 272 272 270 270 272 269 269 273 277 278 279 279 280 281 281 281 281 281 281 281 282 281 280 281 282 281
293 294 295 295 295 295 296 295 295 292 288 280 277 273 273 270 271 271 271 273 276 276 276 278 276 277 277 274 271 271 270 270 267 264 269 276 277 279 279 279 279 280 281 280 280 280 280 281 280 281 281 282 281 281
294 294 294 294 294 294 294 295 295 289 284 278 277 272 270 275 273 274 275 275 275 278 278 276 275 276 273 270 270 269 267 267 269 269 274 278 278 278 278 279 280 280 280 280 280 280 280 281 280 281 282 282 282 282
294 293 291 294 294 294 294 294 290 286 281 277 275 272 270 271 271 271 272 275 277 279 277 276 271 270 269 270 269 269 267 265 272 274 278 279 278 278 279 280 280 281 280 281 281 281 281 280 280 281 282 282 282 282
293 287 293 294 294 294 294 287 285 281 277 276 273 273 274 274 276 274 274 276 279 278 275 272 268 269 270 267 267 270 269 275 277 278 279 279 279 280 280 281 280 281 280 281 281 281 281 281 281 280 279 281 282 283
288 289 293 294 293 291 289 285 282 279 274 273 273 274 275 277 277 276 276 277 279 277 275 273 272 267 268 266 268 273 275 278 278 278 280 280 280 280 280 280 280 281 280 280 280 280 280 280 280 280 281 282 280 280
290 290 293 294 291 285 282 283 283 274 273 272 272 273 276 278 279 280 278 279 280 280 275 272 269 269 271 273 275 278 277 277 278 280 280 280 280 280 280 280 280 279 280 280 280 280 280 281 281 281 280 279 278 279
294 294 294 293 290 283 279 279 283 274 271 273 271 272 275 276 278 279 278 279 278 277 273 271 273 275 275 278 278 279 280 280 279 278 279 281 281 281 280 280 280 280 280 280 280 281 280 281 280 279 279 279 278 277
291 291 292 288 284 280 277 276 274 273 270 270 269 273 273 274 276 276 277 280 277 273 273 276 279 280 280 280 280 280 279 279 279 279 279 278 280 280 280 280 280 279 279 279 279 279 278 277 278 278 278 278 278 278
287 290 284 283 279 278 278 279 276 273 270 269 271 271 270 271 272 275 279 277 273 277 276 279 280 279 279 279 280 280 281 280 280 279 281 280 277 278 278 279 279 278 278 278 278 277 276 277 278 279 277 277 278 277
286 283 275 272 272 271 273 277 273 271 270 270 270 270 268 268 269 270 275 275 275 276 278 279 279 279 279 279 279 278 278 278 277 277 277 278 278 278 278 279 279 277 276 277 278 277 276 278 277 277 277 276 276 276
281 271 268 264 264 264 269 265 270 268 267 268 269 269 267 266 267 270 270 269 274 276 276 276 276 276 276 273 275 276 277 277 277 277 277 276 276 276 277 277 277 277 277 277 276 276 276 275 276 275 275 274 275 274
271 268 270 265 267 265 262 264 264 266 263 262 265 266 265 264 268 266 265 270 271 272 274 273 274 275 275 275 275 276 277 277 276 275 276 276 276 275 274 274 274 276 277 275 274 274 274 274 274 274 274 274 273 274
265 268 269 264 265 267 266 264 267 265 260 258 262 258 259 264 265 265 267 269 269 270 272 273 274 274 274 274 274 275 275 276 274 272 274 275 273 271 271 271 271 273 276 276 274 273 273 273 273 273 273 274 276 275
264 266 271 274 272 270 267 266 266 263 263 264 262 258 260 259 261 268 270 270 271 271 271 272 274 274 274 274 274 274 273 272 272 272 273 273 273 274 273 271 271 273 275 275 275 273 272 273 273 274 274 275 276 276
269 269 267 268 269 269 267 265 262 263 265 265 264 261 262 264 266 270 270 270 268 266 266 266 266 267 269 270 269 268 269 271 271 273 273 273 273 272 273 275 274 276 275 274 275 275 275 275 275 275 276 276 277 277
267 268 268 261 265 263 264 266 266 269 270 268 267 265 265 268 268 268 270 268 264 267 269 268 267 264 266 268 269 271 270 269 269 267 267 267 269 271 273 272 272 273 274 274 276 277 276 277 277 277 278 279 280 279
271 268 266 267 265 264 265 265 264 264 267 268 268 268 269 268 267 267 266 265 267 265 262 262 262 266 267 267 268 269 269 269 269 268 266 266 267 270 270 271 272 273 274 275 273 273 276 276 275 275 276 278 280 280
264 264 261 259 262 261 259 257 257 262 259 258 258 263 265 263 266 266 264 262 261 259 264 265 266 266 267 266 266 266 267 270 269 268 269 270 270 270 270 273 275 276 274 273 272 272 272 272 273 274 276 277 278 276
266 265 267 267 262 258 255 256 254 257 256 259 260 260 261 263 262 265 266 265 266 265 267 265 265 266 266 266 267 267 270 269 268 267 267 271 273 275 276 277 275 274 273 272 272 271 271 271 272 274 275 276 276 276
262 262 261 261 263 262 257 257 257 258 257 258 259 257 257 262 261 265 266 266 265 264 263 263 264 265 265 265 266 267 269 267 268 273 274 276 277 278 276 275 273 273 272 271 271 272 271 272 272 273 275 276 275 274
Wind_Speed
15 15 14 12 15 16 18 18 9 14 19 17 15 13 9 6 5 1 1 1 1 1 1 3 3 4 3 2 3 5 3 2 2 6 4 3 4 3 3 1 4 6 6 5 6 6 12 3 1 3 7 9 11 11
13 15 16 15 10 19 10 14 16 19 17 15 13 11 12 8 7 1 1 1 2 2 2 2 2 2 2 1 4 3 1 3 3 3 2 3 3 3 3 3 2 5 5 2 6 3 2 1 5 6 9 10 10 9
13 13 14 16 13 12 19 3 9 13 15 13 12 12 9 9 7 5 3 0 1 2 1 1 2 0 0 1 2 3 1 3 3 2 3 2 3 4 5 6 3 4 3 4 5 2 9 8 12 8 9 14 13 11
14 13 13 13 16 5 11 16 6 13 13 13 12 11 9 6 5 4 2 1 3 1 2 2 0 2 2 0 1 2 6 5 5 1 2 2 2 3 2 2 3 0 2 4 8 11 13 13 7 13 16 15 16 15
12 13 13 12 12 14 7 10 7 13 16 14 13 12 10 11 9 5 3 1 1 1 1 2 1 2 3 1 5 6 9 5 2 3 2 3 2 3 2 1 4 5 6 4 7 10 12 17 14 15 16 17 16 16
13 12 12 13 12 12 12 12 9 4 7 13 14 12 13 13 11 2 1 1 1 1 2 3 2 1 4 4 6 7 4 3 2 3 2 1 0 3 3 3 7 9 6 9 10 7 11 16 17 18 17 17 16 14
14 14 11 12 12 11 12 12 12 10 11 11 12 14 15 13 3 1 0 2 5 1 1 1 2 1 1 3 2 2 3 2 1 2 2 1 2 3 2 4 7 9 11 11 11 10 12 13 11 14 15 17 16 16
14 13 13 10 11 11 11 11 13 14 14 18 14 14 16 12 9 2 3 4 3 4 2 2 1 2 2 3 3 1 3 1 2 2 2 2 2 1 6 13 10 9 9 11 12 7 13 16 15 15 15 13 14 17
15 13 12 12 10 10 11 10 11 12 3 12 12 14 6 3 2 2 3 6 2 1 2 2 3 3 0 2 2 2 0 3 2 2 2 3 3 7 11 10 9 8 5 10 11 11 13 13 16 17 16 16 18 18
15 14 13 12 11 10 9 10 9 5 13 20 6 2 2 1 7 4 5 1 3 2 2 2 1 3 1 1 2 3 1 2 3 2 2 3 5 12 12 12 11 8 6 5 7 13 16 17 16 20 20 18 17 18
16 15 14 13 11 10 8 9 9 7 14 2 3 2 3 7 2 3 2 1 1 2 2 0 3 2 1 2 3 3 2 1 2 3 3 2 6 5 4 7 7 6 7 8 9 13 15 16 17 17 19 19 18 19
16 15 14 12 11 10 8 6 3 5 1 5 4 5 2 3 3 3 1 1 3 3 3 3 2 0 2 1 3 2 3 0 1 1 1 4 6 6 5 7 7 6 8 12 13 16 17 17 17 17 17 18 18 18
15 13 13 12 12 11 10 3 8 20 11 3 3 3 1 2 3 7 6 3 3 5 5 5 4 2 2 3 4 2 3 2 2 2 5 6 4 5 5 5 9 10 11 14 17 16 16 18 17 17 18 17 18 17
12 13 11 11 11 11 12 9 21 11 3 2 4 4 3 3 5 6 6 4 4 4 7 6 4 1 2 3 2 4 2 2 2 3 7 3 7 7 5 5 6 13 16 16 18 16 17 17 17 18 16 16 16 17
16 14 11 9 8 7 5 14 18 3 2 3 2 5 7 3 0 0 2 3 3 6 7 5 3 1 1 4 1 4 3 4 5 6 4 4 4 5 6 9 11 13 13 13 15 15 17 17 17 17 16 15 15 16
14 9 6 10 8 6 12 13 4 2 1 3 3 3 1 1 1 2 4 3 4 7 4 3 3 2 2 3 3 5 5 7 5 5 6 3 5 6 9 11 12 13 14 14 15 16 17 17 17 17 17 16 15 15
11 4 9 9 9 6 18 3 2 3 3 3 3 2 3 2 3 4 5 4 6 7 4 4 4 4 4 2 3 5 7 7 6 5 5 6 8 10 11 12 13 13 14 15 16 16 16 16 16 15 16 15 13 11
5 5 11 12 8 7 2 2 3 3 5 3 3 3 3 2 1 3 4 6 6 4 5 4 6 4 6 6 6 6 7 7 5 7 7 8 10 11 10 12 13 13 14 15 15 15 15 14 14 12 13 8 11 10
6 7 12 14 7 5 3 3 3 4 5 2 1 2 2 2 3 3 5 8 2 3 7 3 3 5 6 6 6 4 3 3 5 7 6 9 11 11 13 12 11 12 13 14 15 11 11 14 11 7 8 8 8 8
15 15 12 14 6 3 2 1 1 3 4 2 1 2 2 2 2 4 6 6 4 2 2 4 7 5 5 3 4 3 3 4 4 7 9 8 8 10 10 9 9 12 12 13 11 15 9 8 7 8 8 10 9 9
8 4 9 7 2 3 3 2 1 2 2 2 1 2 1 0 3 4 4 5 3 4 5 6 7 8 3 3 3 2 4 4 7 7 10 10 10 8 8 8 8 8 9 9 9 10 11 9 9 9 8 8 9 9
3 9 4 5 3 2 2 2 0 2 2 1 2 0 1 2 2 3 4 3 5 5 4 5 5 2 3 3 3 4 6 7 8 8 13 11 7 8 8 7 8 8 8 8 8 8 9 9 8 8 9 9 10 9
8 4 4 3 4 3 1 1 2 1 2 2 1 1 1 0 1 3 3 4 4 3 3 3 2 1 3 3 3 5 5 5 6 6 6 7 7 7 7 8 7 8 8 7 7 7 8 12 11 10 9 9 9 8
6 5 4 2 3 1 2 3 2 2 2 2 0 1 1 1 3 1 4 3 4 1 1 1 1 3 2 2 3 3 2 2 5 6 5 6 7 7 8 8 8 7 7 7 7 7 8 8 13 9 9 9 9 8
6 4 4 2 2 3 3 2 2 3 2 1 2 2 1 2 1 2 4 4 2 2 1 1 1 3 3 3 3 3 3 3 4 8 7 6 6 6 6 7 7 7 6 7 7 9 9 8 8 9 10 9 10 11
2 2 2 3 1 3 3 3 3 3 2 1 2 0 1 1 2 5 3 3 3 2 3 4 3 2 3 3 4 4 3 2 4 5 6 3 5 6 7 8 8 7 6 7 9 11 11 10 10 12 11 12 14 10
1 3 0 1 2 4 2 2 2 2 3 4 3 2 2 2 4 4 3 2 1 1 1 1 1 1 3 4 4 3 4 4 3 6 7 6 6 4 4 6 10 8 9 10 10 10 11 12 11 11 11 10 8 7
2 2 3 2 1 1 3 2 4 5 3 3 4 3 7 7 4 3 2 2 1 1 2 2 2 2 2 3 3 4 3 3 6 5 4 3 3 3 3 5 7 19 12 10 10 10 9 9 10 11 11 9 7 3
0 1 3 1 0 1 4 6 4 3 4 4 4 3 4 3 2 3 3 3 2 2 3 3 4 4 3 3 2 3 2 2 7 11 13 9 8 3 7 8 8 8 8 9 16 15 13 11 9 9 9 6 2 1
1 1 3 2 2 4 4 2 2 2 1 0 1 2 1 2 3 3 4 4 4 3 2 1 2 3 4 4 5 6 2 0 0 4 7 9 8 11 10 10 10 10 7 8 9 10 14 10 9 5 5 3 1 3
1 2 2 1 4 3 2 2 2 1 2 2 2 2 2 0 1 3 3 3 2 2 1 3 3 3 4 5 4 5 5 1 4 7 7 8 9 10 10 10 8 6 8 8 8 8 8 8 7 7 6 5 2 5
1 2 2 2 4 3 3 3 1 2 3 3 2 2 3 2 2 3 4 4 3 5 8 6 6 5 5 4 3 3 9 7 8 8 11 9 9 10 10 6 6 7 8 8 7 7 8 8 7 7 6 2 3 5
1 1 1 2 3 4 3 3 4 4 3 2 2 0 0 1 2 1 2 2 1 2 6 7 7 6 6 6 6 5 7 6 12 18 19 21 22 19 11 7 7 7 8 7 7 7 7 8 7 7 5 3 4 5
Wind_Direction
323 334 326 330 340 329 334 319 249 170 150 152 147 131 108 45 53 31 72 303 249 197 192 206 179 148 136 186 182 127 152 177 142 194 199 187 220 182 227 169 189 187 179 200 223 250 266 73 171 287 348 318 308 304
324 319 332 329 343 353 345 36 102 130 139 144 147 165 136 162 127 178 255 321 304 126 50 334 325 333 15 69 141 157 359 145 150 133 185 142 177 182 197 223 174 225 232 222 229 251 65 240 291 296 288 292 296 287
327 324 322 336 336 336 339 270 159 153 148 155 171 148 144 124 106 149 128 301 72 70 20 283 236 116 82 237 325 169 189 131 156 18 130 113 214 180 189 220 209 201 179 248 313 252 289 298 303 306 284 306 298 281
316 324 327 327 340 331 329 335 281 172 166 165 166 167 156 130 114 102 104 106 71 51 220 110 189 77 353 234 183 37 119 99 102 88 110 156 206 206 227 27 246 8 163 236 263 284 292 281 281 300 293 293 288 284
305 310 318 322 327 339 320 292 316 338 189 184 178 179 176 142 118 80 72 111 147 247 198 110 64 20 354 124 116 130 133 122 129 126 141 186 144 172 106 183 229 191 207 217 277 298 280 283 289 292 286 284 282 282
293 300 308 317 319 326 330 340 330 299 297 202 185 192 165 145 135 123 110 238 226 239 152 188 59 53 39 106 110 116 93 89 101 143 161 185 103 202 199 232 252 220 223 244 263 271 284 286 291 288 280 277 277 274
285 288 293 305 319 320 326 327 338 320 318 188 202 174 162 149 100 108 69 133 150 109 113 140 170 60 61 109 80 93 39 71 70 129 186 172 171 186 235 240 237 228 234 249 257 280 283 276 277 292 287 283 279 276
275 279 285 291 303 314 319 323 320 324 307 177 184 181 151 126 111 75 11 78 76 89 46 133 155 209 183 149 120 13 116 111 45 102 132 186 137 190 248 242 265 259 267 275 276 264 254 279 286 276 274 278 281 280
267 270 272 275 285 297 308 312 316 318 30 164 144 92 69 39 113 108 85 81 58 51 150 178 187 196 142 82 103 121 186 131 36 181 219 182 163 224 230 244 259 243 233 286 299 297 286 275 278 277 277 286 287 284
263 261 264 266 271 283 299 316 317 291 126 112 71 100 107 119 118 102 21 85 16 1 66 245 58 156 186 146 99 125 351 103 169 117 130 228 253 261 252 242 256 264 267 271 293 304 304 297 291 288 283 287 288 285
253 254 256 259 260 270 283 299 309 176 128 88 124 100 106 112 68 36 82 122 229 283 195 107 211 136 92 141 115 1 132 79 179 124 235 236 259 244 261 235 223 225 241 260 263 276 284 284 285 286 286 284 285 285
249 249 248 246 251 248 256 281 357 86 40 77 87 89 96 87 75 106 182 251 219 231 167 170 173 31 108 67 111 37 105 203 192 73 216 252 250 267 272 253 253 265 281 291 289 287 290 289 286 283 281 283 284 287
239 238 241 237 236 234 233 239 132 128 130 83 67 89 246 93 121 178 186 218 224 189 170 159 154 145 137 87 77 111 121 167 128 185 230 242 264 265 273 258 268 281 284 287 289 288 288 287 285 283 286 287 290 291
241 240 232 245 240 225 214 161 151 140 100 113 145 163 207 189 231 192 183 169 179 154 149 134 123 145 118 100 124 127 94 180 196 240 235 245 246 259 258 253 270 288 297 295 291 291 290 289 289 291 290 291 292 292
225 228 232 231 237 242 182 164 157 64 115 158 173 202 205 212 305 270 126 132 151 147 134 117 101 188 107 109 53 113 133 238 228 232 233 238 250 261 278 280 283 287 294 291 292 292 293 295 294 295 297 296 294 295
224 229 219 219 215 223 155 168 80 91 87 141 179 180 165 139 190 228 196 144 155 148 108 74 118 99 109 117 139 206 161 223 237 215 234 255 259 269 273 283 283 290 291 290 293 296 296 295 296 297 299 297 297 297
210 200 196 202 206 186 134 105 111 161 177 203 255 313 189 259 196 166 170 169 162 159 156 132 146 185 107 105 229 192 215 223 224 234 241 244 271 283 286 288 287 289 292 294 298 297 296 298 300 298 296 300 308 312
190 195 197 206 191 124 69 143 130 159 219 184 202 179 199 275 146 153 168 149 156 180 140 183 127 177 195 187 221 223 228 248 254 267 274 272 271 279 279 278 283 290 293 295 294 294 296 300 299 296 302 321 311 312
172 172 207 201 137 112 138 163 163 209 218 184 195 216 204 247 227 101 160 159 80 116 115 120 184 202 214 215 232 240 246 246 273 287 278 277 275 276 279 281 285 289 290 297 301 300 298 295 301 315 314 318 306 308
201 192 180 149 93 105 124 183 106 144 203 222 122 178 209 191 146 139 161 145 121 139 168 201 222 217 209 212 193 231 236 244 270 287 293 293 289 284 277 285 291 298 299 300 295 301 304 308 318 315 312 307 312 310
84 121 156 128 87 85 136 152 232 204 154 184 236 191 170 308 154 159 152 145 180 210 220 222 242 258 206 219 226 254 256 238 259 263 284 292 293 291 290 294 292 292 297 302 302 310 321 312 313 307 298 307 315 307
91 83 74 17 79 27 80 60 27 138 97 89 141 115 126 175 140 122 135 176 223 232 200 237 257 263 263 261 255 223 254 263 269 275 282 285 282 295 299 299 304 298 299 301 305 310 310 311 308 314 318 309 317 309
94 74 67 53 80 29 164 345 144 14 116 153 159 163 75 8 342 325 216 227 258 235 227 239 288 14 267 277 266 264 255 264 268 278 298 295 297 296 296 298 298 298 299 303 312 306 306 310 316 314 315 312 308 308
42 58 78 81 74 232 31 19 31 66 55 85 215 177 115 8 327 272 256 267 250 302 223 232 14 326 315 313 259 276 297 252 299 297 294 297 297 301 308 304 305 301 301 306 303 304 309 306 312 308 304 304 306 305
72 322 90 0 6 82 45 18 19 41 138 205 139 160 175 308 184 240 236 266 268 261 282 329 217 211 225 273 282 284 350 325 309 301 306 291 294 306 307 304 304 309 310 304 313 311 306 303 302 303 304 301 298 296
103 292 133 192 233 127 167 147 204 200 144 140 198 32 334 138 178 245 231 237 236 212 185 176 173 213 252 232 289 312 313 330 303 279 299 340 314 301 304 313 316 317 329 319 308 306 306 306 301 299 296 296 304 312
166 255 236 335 90 110 89 42 60 132 168 206 181 157 106 101 251 254 271 240 230 255 285 322 293 309 293 304 309 319 322 304 276 283 289 290 286 280 282 298 309 307 314 306 305 304 298 300 302 300 298 295 288 277
214 162 165 206 118 355 147 158 177 207 210 173 128 177 174 198 229 251 236 358 312 4 49 43 38 13 337 304 296 301 302 326 300 290 280 274 277 281 283 295 297 301 305 300 299 301 297 299 299 296 298 300 299 279
219 261 103 65 33 217 216 194 214 222 143 162 169 207 239 229 320 340 350 344 336 5 38 44 7 0 299 288 247 298 334 357 9 352 348 333 334 327 333 310 302 299 299 299 304 318 315 311 314 308 301 300 329 61
226 65 98 175 209 235 246 167 220 285 304 184 316 338 345 44 10 344 351 7 36 46 15 339 301 323 356 355 333 341 350 26 40 7 326 315 312 307 305 303 303 301 302 316 316 313 323 331 326 331 333 323 285 129
83 82 73 150 239 252 260 306 306 354 33 22 349 159 224 295 23 25 17 357 343 337 9 355 330 0 6 351 345 336 331 358 324 307 287 292 289 288 289 290 298 322 318 314 313 315 318 324 325 324 330 345 82 124
124 191 189 247 280 291 17 45 30 47 342 23 337 341 336 59 63 358 358 338 19 22 353 350 346 334 326 296 282 269 282 297 312 316 301 300 302 308 303 321 325 317 312 313 312 310 314 317 318 327 333 89 103 118
45 39 341 319 320 336 325 63 25 348 20 26 339 321 152 98 138 322 323 24 7 345 339 317 301 294 287 284 286 293 322 308 310 327 328 331 334 330 341 335 323 317 316 311 309 311 317 323 328 334 346 102 118 124